Orbital elements:
2017 TV4                                            PHA, Earth MOID = 0.0401 AU
Epoch 2017 Sept. 4.0 TT = JDT 2458000.5                 MPC
M 335.77187              (2000.0)            P               Q
n   0.27625353     Peri.  237.79161     +0.40068113     -0.90485612
a   2.3348778      Node   191.71334     +0.87415787     +0.33052638
e   0.6332151      Incl.   45.11461     -0.27441329     -0.26830528
P   3.57           H   19.1           G   0.15           U   6
Residuals in seconds of arc
171012 T05  0.1-  0.0     171013 850  1.0+  0.3-    171014 246  0.2+  0.1+
171012 T05  0.2+  0.2-    171013 850  0.7-  0.3+    171014 246  0.3+  0.1-
171012 T05  0.2-  0.4+    171013 850  0.3-  0.5+    171014 246  0.0   0.3-
171012 T05  0.1+  0.5+    171013 850  0.2+  0.1+    171014 246  0.1-  0.1+
171012 T05  0.2+  0.1+    171013 850  0.5+  0.3+    171014 K88  0.0   1.0+
171012 J95  0.0   0.2+    171013 926  0.1-  0.1+    171014 K88  0.1+  0.7+
171012 J95  0.3-  0.1+    171013 926  0.0   0.2+    171014 K88  0.4+  0.5+
171012 J95  0.1-  0.2+    171013 926  0.1-  0.0     171014 587  0.4+  0.6+
171012 204  0.2-  0.0     171013 850  1.1-  0.2+    171014 587  0.0   0.2-
171012 204  0.0   0.1-    171013 850  0.4+  0.6+    171014 587  0.2+  0.2-
171012 104  0.1-  0.4+    171013 850  1.7+  0.0     171014 J95  0.3+  0.1+
171012 204  0.3-  0.1+    171013 E23  0.4+  0.1+    171014 J95  0.3-  0.0
171012 104  0.5+  0.4+    171013 E23  0.9-  0.4+    171014 J95  0.1+  0.6+
171012 K88  0.1+  0.2+    171013 Q62  0.2-  1.1+    171015 B15  0.0   0.7+
171012 204  0.1+  0.1+    171013 Q62  0.3+  1.0+    171015 B15  0.1-  0.5+
171012 K88  0.0   0.3+    171013 Q62  0.7+  0.5+    171015 K88  0.9+  0.6+
171012 K88  0.1-  0.3+    171013 160  0.4+  0.1+    171015 K88  0.2+  1.0+
171012 104  0.0   0.1+    171013 160  0.1+  0.0     171015 B15  0.2+  0.1+
171012 204  0.0   0.1+    171013 160  0.2+  0.1+    171015 K88  0.3+  0.8+
171012 K33  0.0   0.6+    171013 160  0.0   0.1+    171015 160  0.2+  0.0
171012 K33  0.3-  0.1+    171013 160  0.0   0.0     171015 160  0.0   0.6-
171012 K33  0.3-  0.3+    171013 K38  0.3-  0.0     171015 246  0.6+  0.2+
171012 K33  0.6+  0.2+    171013 K38  0.2+  0.4+    171015 160  0.1+  0.2+
171012 Y00  0.6+  0.1-    171013 C77  0.1+  0.5-    171015 246  0.0   0.5+
171012 Y00  0.0   0.1+    171013 C77  0.1-  0.5+    171015 246  0.9-  0.0
171013 H36  0.1-  0.1-    171013 K38  0.1-  0.2-    171015 246  0.2+  0.1-
171013 H36  0.2+  0.3-    171013 K38  0.1+  0.1+    171015 246  0.2+  0.1+
171013 H36  0.3+  0.0     171014 246 (4.5-  0.9+)   171015 160  0.0   0.0
171013 850  0.9+  0.3+    171014 246  0.3+  0.0

Ephemeris:
2017 TV4                 a,e,i = 2.33, 0.63, 45                  q = 0.8564
Date    TT    R. A. (2000) Decl.     Delta      r     Elong.  Phase     V
2017 09 16    20 58 35.2 +47 10 03   0.5215  1.3414   119.5    40.7    19.9
...
2017 10 01    20 29 35.0 +29 51 01   0.3519  1.2052   117.6    47.4    19.0
...
2017 10 09    20 18 28.5 +12 22 37   0.2893  1.1352   111.0    55.2    18.7
...
2017 10 15    20 12 05.7 -04 57 33   0.2661  1.0848   102.1    64.0    18.7
2017 10 16    20 11 09.9 -08 03 56   0.2647  1.0767   100.4    65.6    18.7
2017 10 17    20 10 16.0 -11 11 39   0.2640  1.0686    98.6    67.2    18.7
...
2017 10 23    20 05 19.8 -29 29 03   0.2751  1.0219    87.8    76.6    19.0
...
2017 10 31    19 58 23.8 -49 24 55   0.3227  0.9658    75.8    85.3    19.6
...
2017 11 15    19 26 36.4 -71 31 21   0.4596  0.8871    63.7    88.6    20.3

                       (Last issue was M.P.E.C. 2017-T96)

A. U. Tomatic                (C) Copyright 2017 MPC           M.P.E.C. 2017-U01




More information about the Iaude mailing list